Tümü
Gawa Airport YGAA Hava Durumu
There is no TAF data available at YGAA. Showing TAF data for YELD (28 mi GB).
ELC Terminal Alanı Tahmini (YGAA için veri yok)
| Here is the undecoded forecast: 2026/05/02 18:36 YELD 021836Z 0220/0308 14008KT 9999 SCT020 FM030000 11010KT 9999 SCT025 INTER 0220/0300 3000 SHRA BKN010 RMK T 24 27 30 32 Q 1010 1012 1012 1009 |
There is no METAR data available at YGAA. Showing METAR data for YELD (28 mi GB).
Yakın zamandaki ELC METAR geçmişi (YGAA verisi yok)
| Date | Time (ACST) | Flight Rules | Wind Dir. | Speed | Type | Height AGL (ft) | Visibility | Temp (°C) | Temp (°F) | Dew Point (°C) | Dew Point (°F) | Rel. Humid. | Pressure | Density Altitude | Remarks |
|---|---|---|---|---|---|---|---|---|---|---|---|---|---|---|---|
| 03-May | 05:30 | n/a | 160° | 6 kt | Missing | 25° | 77° | 24° | 75° | 94% | 1010 mb | 1.396 ft | |||
| 03-May | 04:30 | n/a | 140° | 6 kt | Missing | 26° | 78° | 24° | 75° | 89% | 1009 mb | 1.545 ft | |||
| 03-May | 03:30 | n/a | 150° | 8 kt | Missing | 26° | 78° | 24° | 75° | 89% | 1009 mb | 1.545 ft | |||
| 03-May | 02:30 | n/a | 150° | 9 kt | Missing | 26° | 78° | 24° | 75° | 89% | 1010 mb | 1.516 ft | |||
| 03-May | 01:30 | n/a | 150° | 7 kt | Missing | 26° | 78° | 25° | 77° | 94% | 1010 mb | 1.516 ft | |||
| 03-May | 00:30 | n/a | 150° | 5 kt | Missing | 27° | 80° | 25° | 77° | 89% | 1011 mb | 1.606 ft | |||
| 02-May | 23:30 | n/a | 140° | 7 kt | Missing | 27° | 80° | 25° | 77° | 89% | 1011 mb | 1.606 ft | |||
| 02-May | 22:30 | n/a | 140° | 6 kt | Missing | 27° | 80° | 25° | 77° | 89% | 1011 mb | 1.606 ft | |||
| 02-May | 21:30 | n/a | 130° | 6 kt | Missing | 26° | 78° | 24° | 75° | 89% | 1011 mb | 1.486 ft | |||
| 02-May | 20:30 | n/a | 110° | 4 kt | Missing | 26° | 78° | 24° | 75° | 89% | 1011 mb | 1.486 ft | |||
| 02-May | 19:30 | n/a | 110° | 5 kt | Missing | 27° | 80° | 24° | 75° | 84% | 1010 mb | 1.636 ft | |||
| 02-May | 18:30 | n/a | 100° | 4 kt | Missing | 28° | 82° | 24° | 75° | 79% | 1009 mb | 1.785 ft | |||
| 02-May | 17:30 | n/a | 80° | 7 kt | Missing | 30° | 86° | 24° | 75° | 70% | 1009 mb | 2.025 ft | |||
| 02-May | 16:30 | n/a | 100° | 8 kt | Missing | 30° | 86° | 23° | 73° | 66% | 1009 mb | 2.025 ft | |||
| 02-May | 15:30 | n/a | 110° | 9 kt | Missing | 31° | 87° | 23° | 73° | 63% | 1009 mb | 2.145 ft | |||
| 02-May | 14:30 | n/a | 100° | 8 kt | Missing | 30° | 86° | 24° | 75° | 70% | 1009 mb | 2.025 ft | |||
| 02-May | 13:30 | n/a | 90° | 8 kt | Missing | 31° | 87° | 24° | 75° | 66% | 1010 mb | 2.116 ft | |||
| 02-May | 12:30 | n/a | 90° | 8 kt | Missing | 31° | 87° | 24° | 75° | 66% | 1010 mb | 2.116 ft | |||
| 02-May | 11:30 | n/a | 120° | 9 kt | Missing | 31° | 87° | 24° | 75° | 66% | 1011 mb | 2.086 ft | |||
| 02-May | 10:30 | n/a | 120° | 6 kt | Missing | 30° | 86° | 24° | 75° | 70% | 1012 mb | 1.937 ft | |||
| 02-May | 09:30 | n/a | 120° | 7 kt | Missing | 29° | 84° | 25° | 77° | 79% | 1011 mb | 1.846 ft | |||
| 02-May | 08:30 | n/a | 140° | 7 kt | Missing | 27° | 80° | 25° | 77° | 89% | 1011 mb | 1.606 ft | |||
| 02-May | 07:30 | n/a | 160° | 5 kt | Missing | 25° | 77° | 25° | 77° | 100% | 1011 mb | 1.366 ft | |||
| 02-May | 06:30 | n/a | 150° | 5 kt | Missing | 24° | 75° | 24° | 75° | 100% | 1011 mb | 1.246 ft |
Giriş
| Tarayıcınız desteklenmiyor. tarayıcınızı yükseltin |
